Swansboro, NC

7:06 PM EDT on May 29, 2017 (GMT -0400)
Bogue McAlf

Weather History for KNJM - November, 2013

Change the Weather History Date:

Monday, November 4, 2013

  Actual Average (KNKT) Record (KNKT)
Temperature  
Mean Temperature 50 °F -  
Max Temperature 59 °F 66 °F 82 °F (2003)
Min Temperature 41 °F 45 °F 30 °F (1999)
Degree Days  
Heating Degree Days 15    
Moisture  
Dew Point 38 °F    
Average Humidity 63    
Maximum Humidity 83    
Minimum Humidity 41    
Precipitation  
Precipitation 0.00 in - - ()
Sea Level Pressure  
Sea Level Pressure 30.46 in    
Wind  
Wind Speed 7 mph (NNE)    
Max Wind Speed 16 mph    
Max Gust Speed 26 mph    
Visibility 10 miles    
Events      
Averages and records for this station are not official NWS values.
T = Trace of Precipitation, MM = Missing Value Source: NWS Daily Summary

Daily Weather History Graph

Daily Weather History Graph

Search for Another Location

Airport or City:

Trip Planner

Search our weather history database for the weather conditions in past years. The results will help you decide how hot, cold, wet, or windy it might be!

Date:

Astronomy

Nov. 04, 2013 Rise Set
Actual Time 6:31 AM EST 5:11 PM EST
Civil Twilight 6:05 AM EST 5:37 PM EST
Nautical Twilight 5:35 AM EST 6:07 PM EST
Astronomical Twilight 5:05 AM EST 6:36 PM EST
Moon 7:37 AM EST (11/4) 6:16 PM EST (11/4)
Length of Visible Light 11h 32m
Length of Day
10h 39m
New Moon, 2% of the Moon is Illuminated
Nov 4
New Moon
Nov 10
First Quarter
Nov 17
Full
Nov 25
Last Quarter
Dec 2
New

Hourly Weather History & Observations

Time (EST) Temp. Windchill Dew Point Humidity Pressure Visibility Wind Dir Wind Speed Gust Speed Precip Events Conditions
12:57 AM 48.9 °F - 37.9 °F 66% 30.36 in 10.0 mi North 4.6 mph - N/A   Clear
1:57 AM 46.0 °F 43.9 °F 37.0 °F 71% 30.37 in 10.0 mi North 4.6 mph - N/A   Clear
2:57 AM 45.0 °F 42.6 °F 37.0 °F 74% 30.37 in 10.0 mi North 4.6 mph - N/A   Clear
3:57 AM 43.0 °F 40.3 °F 35.1 °F 74% 30.40 in 10.0 mi NNW 4.6 mph - N/A   Clear
4:57 AM 41.0 °F 37.1 °F 35.1 °F 79% 30.43 in 10.0 mi North 5.8 mph - N/A   Clear
5:57 AM 42.1 °F 38.4 °F 34.0 °F 73% 30.43 in 10.0 mi North 5.8 mph - N/A   Clear
6:57 AM 44.1 °F 40.8 °F 36.0 °F 73% 30.45 in 10.0 mi North 5.8 mph - N/A   Clear
7:39 AM 48.0 °F - 36.0 °F 63% 30.43 in 10.0 mi NNE 8.1 mph - N/A   Partly Cloudy
7:57 AM 50.0 °F - 37.0 °F 61% 30.44 in 10.0 mi NNE 9.2 mph - N/A   Partly Cloudy
8:57 AM 55.0 °F - 37.9 °F 53% 30.46 in 10.0 mi NNE 12.7 mph - N/A   Partly Cloudy
9:57 AM 57.0 °F - 39.9 °F 53% 30.48 in 10.0 mi NE 13.8 mph 24.2 mph N/A   Scattered Clouds
10:57 AM 59.0 °F - 39.0 °F 48% 30.50 in 10.0 mi NE 16.1 mph 26.5 mph N/A   Scattered Clouds
11:57 AM 57.9 °F - 39.0 °F 49% 30.49 in 10.0 mi NNE 11.5 mph - N/A   Mostly Cloudy
12:57 PM 59.0 °F - 37.9 °F 46% 30.47 in 10.0 mi NE 15.0 mph 21.9 mph N/A   Clear
1:57 PM 57.9 °F - 34.0 °F 41% 30.47 in 10.0 mi North 11.5 mph 20.7 mph N/A   Clear
2:57 PM 57.9 °F - 34.0 °F 41% 30.48 in 10.0 mi North 10.4 mph 18.4 mph N/A   Clear
3:57 PM 57.0 °F - 34.0 °F 42% 30.48 in 10.0 mi NNE 9.2 mph - N/A   Clear
4:57 PM 53.1 °F - 37.0 °F 55% 30.49 in 10.0 mi North 6.9 mph - N/A   Clear
5:57 PM 51.1 °F - 39.9 °F 66% 30.49 in 10.0 mi North 6.9 mph - N/A   Partly Cloudy
6:57 PM 50.0 °F - 39.9 °F 68% 30.50 in 10.0 mi North 6.9 mph - N/A   Clear
7:57 PM 48.9 °F - 41.0 °F 74% 30.50 in 10.0 mi North 5.8 mph - N/A   Clear
8:57 PM 48.9 °F - 41.0 °F 74% 30.50 in 10.0 mi North 6.9 mph - N/A   Clear
9:57 PM 48.0 °F - 42.1 °F 80% 30.49 in 10.0 mi NNE 9.2 mph - N/A   Clear
10:57 PM 48.0 °F - 42.1 °F 80% 30.47 in 10.0 mi North 10.4 mph - N/A   Partly Cloudy
11:57 PM 48.0 °F - 43.0 °F 83% 30.46 in 10.0 mi North 9.2 mph - N/A   Scattered Clouds